Boom en verlichtingspaal belanden op auto door storm

StormCell - Onweer anders bekeken

Welkom op Stormcell.be, dé website waar onweer al sinds 2011 anders wordt bekeken.

Op onze site vindt de bezoeker duidelijke weermodellen, data van het StormCell weerstation in regio Ninove (België) én kan men het onweer live volgen via lightningmaps.org.

We beschikken over een Facebook pagina waar weer gerelateerde berichten worden gedeeld en waar we zelf ook waarschuwingen voor onweer of noodweer uitsturen indien nodig.

U leest het goed: indien nodig, dus geen onheilspellende berichten als de storm of het onweer slechts in een glas water zal woeden. We zijn niet uit op sensatie of het zaaien van angst. We bekijken het onweer met klare kijk op de feiten. 

[Source: ADDS]
METAR
EBBR 241350Z 33008KT 280V020 CAVOK 11/01 Q1028 NOSIG =
EBBR 241110Z 2412/2518 33008KT 9999 FEW020 TEMPO 2509/2517 32015G25KT
TAF
EBBR 241110Z 2412/2518 33008KT 9999 FEW020 TEMPO 2509/2517 32015G25KT =

Visweer Vlissingen

StormCell is een non profit organisatie zonder oogmerk tot sensatie